Time,TemperatureF,DewpointF,PressureIn,WindDirection,WindDirectionDegrees,WindSpeedMPH,WindSpeedGustMPH,Humidity,HourlyPrecipIn,Conditions,Clouds,dailyrainin,SoftwareType,DateUTC
2013-07-02 00:01:00,65.0,63.0,29.91,NW,318,0.0,0.0,94,0.00,,,0.05,,2013-07-02 05:01:00,
2013-07-02 00:11:00,65.0,63.0,29.92,NW,318,0.0,0.0,94,0.00,,,0.05,,2013-07-02 05:11:00,
2013-07-02 00:22:00,65.0,63.0,29.92,NW,318,0.0,0.0,94,0.00,,,0.05,,2013-07-02 05:22:00,
2013-07-02 00:32:00,64.0,62.0,29.91,NW,318,0.0,0.0,94,0.00,,,0.05,,2013-07-02 05:32:00,
2013-07-02 00:43:00,64.0,63.0,29.92,NW,318,0.0,0.0,95,0.00,,,0.05,,2013-07-02 05:43:00,
2013-07-02 00:53:00,64.0,63.0,29.92,NW,318,0.0,0.0,95,0.00,,,0.05,,2013-07-02 05:53:00,
2013-07-02 01:01:00,64.0,62.0,29.92,NW,318,0.0,0.0,94,0.00,,,0.05,,2013-07-02 06:01:00,
2013-07-02 01:12:00,64.0,63.0,29.91,NW,318,0.0,0.0,95,0.00,,,0.05,,2013-07-02 06:12:00,
2013-07-02 01:23:00,64.0,63.0,29.91,NW,318,0.0,0.0,95,0.00,,,0.05,,2013-07-02 06:23:00,
2013-07-02 01:34:00,64.0,63.0,29.91,NW,318,0.0,0.0,95,0.00,,,0.05,,2013-07-02 06:34:00,
2013-07-02 01:43:00,64.0,63.0,29.91,NW,318,0.0,1.0,95,0.00,,,0.05,,2013-07-02 06:43:00,
2013-07-02 01:53:00,64.0,63.0,29.91,NW,318,0.0,1.0,95,0.00,,,0.05,,2013-07-02 06:53:00,
2013-07-02 02:01:00,64.0,63.0,29.91,NW,318,0.0,0.0,95,0.00,,,0.05,,2013-07-02 07:01:00,
2013-07-02 02:12:00,64.0,63.0,29.91,NW,318,0.0,0.0,95,0.00,,,0.05,,2013-07-02 07:12:00,
2013-07-02 02:22:00,64.0,63.0,29.91,NW,318,0.0,0.0,95,0.00,,,0.05,,2013-07-02 07:22:00,
2013-07-02 02:34:00,65.0,64.0,29.90,NW,318,0.0,0.0,95,0.00,,,0.05,,2013-07-02 07:34:00,
2013-07-02 02:44:00,65.0,64.0,29.90,NW,318,0.0,1.0,95,0.00,,,0.05,,2013-07-02 07:44:00,
2013-07-02 02:53:00,65.0,64.0,29.90,NW,318,0.0,1.0,95,0.00,,,0.05,,2013-07-02 07:53:00,
2013-07-02 03:02:00,65.0,64.0,29.90,NW,318,0.0,1.0,95,0.00,,,0.05,,2013-07-02 08:02:00,
2013-07-02 03:12:00,65.0,64.0,29.90,NW,317,1.0,4.0,95,0.00,,,0.05,,2013-07-02 08:12:00,
2013-07-02 03:22:00,65.0,64.0,29.90,NW,317,1.0,4.0,95,0.00,,,0.05,,2013-07-02 08:22:00,
2013-07-02 03:33:00,64.0,63.0,29.90,NW,313,0.0,2.0,95,0.00,,,0.05,,2013-07-02 08:33:00,
2013-07-02 03:44:00,64.0,63.0,29.90,NW,310,0.0,2.0,95,0.00,,,0.05,,2013-07-02 08:44:00,
2013-07-02 03:53:00,64.0,63.0,29.90,NW,310,0.0,2.0,95,0.00,,,0.05,,2013-07-02 08:53:00,
2013-07-02 04:02:00,64.0,63.0,29.90,NW,310,0.0,1.0,96,0.00,,,0.05,,2013-07-02 09:02:00,
2013-07-02 04:11:00,64.0,63.0,29.90,NW,310,0.0,0.0,96,0.00,,,0.05,,2013-07-02 09:11:00,
2013-07-02 04:23:00,64.0,63.0,29.90,NW,310,0.0,0.0,96,0.00,,,0.05,,2013-07-02 09:23:00,
2013-07-02 04:33:00,64.0,63.0,29.91,NNE,28,0.0,1.0,96,0.00,,,0.05,,2013-07-02 09:33:00,
2013-07-02 04:43:00,64.0,63.0,29.91,NE,47,0.0,1.0,96,0.00,,,0.05,,2013-07-02 09:43:00,
2013-07-02 04:52:00,64.0,63.0,29.91,NE,47,0.0,1.0,96,0.00,,,0.05,,2013-07-02 09:52:00,
2013-07-02 05:01:00,64.0,63.0,29.91,East,84,0.0,1.0,95,0.00,,,0.05,,2013-07-02 10:01:00,
2013-07-02 05:11:00,64.0,63.0,29.91,East,87,0.0,3.0,95,0.00,,,0.05,,2013-07-02 10:11:00,
2013-07-02 05:22:00,64.0,63.0,29.91,East,87,0.0,3.0,95,0.00,,,0.05,,2013-07-02 10:22:00,
2013-07-02 05:33:00,64.0,63.0,29.91,East,91,0.0,2.0,95,0.00,,,0.05,,2013-07-02 10:33:00,
2013-07-02 05:44:00,64.0,63.0,29.92,East,91,0.0,1.0,95,0.00,,,0.05,,2013-07-02 10:44:00,
2013-07-02 05:52:00,64.0,63.0,29.92,East,91,0.0,1.0,95,0.00,,,0.05,,2013-07-02 10:52:00,
2013-07-02 06:01:00,64.0,63.0,29.92,East,86,0.0,1.0,95,0.00,,,0.05,,2013-07-02 11:01:00,
2013-07-02 06:11:00,64.0,63.0,29.93,ESE,109,0.0,1.0,95,0.00,,,0.05,,2013-07-02 11:11:00,
2013-07-02 06:22:00,64.0,63.0,29.93,ESE,109,0.0,1.0,95,0.00,,,0.05,,2013-07-02 11:22:00,
2013-07-02 06:33:00,65.0,64.0,29.93,ESE,109,0.0,1.0,96,0.00,,,0.05,,2013-07-02 11:33:00,
2013-07-02 06:52:00,65.0,64.0,29.93,ESE,109,0.0,1.0,96,0.00,,,0.05,,2013-07-02 11:52:00,
2013-07-02 07:11:00,65.0,64.0,29.94,ESE,109,0.0,1.0,96,0.00,,,0.05,,2013-07-02 12:11:00,
2013-07-02 07:23:00,65.0,64.0,29.94,South,190,0.0,1.0,95,0.00,,,0.05,,2013-07-02 12:23:00,
2013-07-02 07:33:00,66.0,65.0,29.95,West,281,0.0,1.0,95,0.00,,,0.05,,2013-07-02 12:33:00,
2013-07-02 07:43:00,66.0,65.0,29.95,West,281,0.0,1.0,95,0.00,,,0.05,,2013-07-02 12:43:00,
2013-07-02 07:52:00,66.0,64.0,29.95,WNW,288,0.0,2.0,94,0.00,,,0.05,,2013-07-02 12:52:00,
2013-07-02 08:01:00,66.0,64.0,29.95,SE,142,0.0,2.0,94,0.00,,,0.05,,2013-07-02 13:01:00,
2013-07-02 08:11:00,66.0,64.0,29.95,SE,142,0.0,2.0,94,0.00,,,0.05,,2013-07-02 13:11:00,
2013-07-02 08:22:00,66.0,64.0,29.96,SSE,163,0.0,2.0,94,0.00,,,0.05,,2013-07-02 13:22:00,
2013-07-02 08:34:00,67.0,65.0,29.96,SSW,195,0.0,4.0,93,0.00,,,0.05,,2013-07-02 13:34:00,
2013-07-02 08:43:00,67.0,65.0,29.96,SSW,195,0.0,4.0,93,0.00,,,0.05,,2013-07-02 13:43:00,
2013-07-02 08:52:00,68.0,65.0,29.96,SSW,205,0.0,6.0,91,0.00,,,0.05,,2013-07-02 13:52:00,
2013-07-02 09:02:00,70.0,66.0,29.96,SSW,207,0.0,6.0,86,0.00,,,0.05,,2013-07-02 14:02:00,
2013-07-02 09:11:00,70.0,66.0,29.96,SSW,207,0.0,6.0,86,0.00,,,0.05,,2013-07-02 14:11:00,
2013-07-02 09:22:00,71.0,65.0,29.96,South,171,2.0,7.0,82,0.00,,,0.05,,2013-07-02 14:22:00,
2013-07-02 09:43:00,72.0,65.0,29.96,SSW,200,4.0,8.0,80,0.00,,,0.05,,2013-07-02 14:43:00,
2013-07-02 09:53:00,71.0,65.0,29.96,WNW,297,1.0,7.0,81,0.00,,,0.05,,2013-07-02 14:53:00,
2013-07-02 10:02:00,72.0,65.0,29.96,SE,142,1.0,5.0,80,0.01,,,0.06,,2013-07-02 15:02:00,
2013-07-02 10:11:00,72.0,65.0,29.96,SE,142,1.0,5.0,80,0.01,,,0.06,,2013-07-02 15:11:00,
2013-07-02 10:22:00,72.0,65.0,29.96,East,95,1.0,7.0,80,0.01,,,0.06,,2013-07-02 15:22:00,
2013-07-02 10:33:00,72.0,65.0,29.97,NNW,337,2.0,8.0,78,0.01,,,0.06,,2013-07-02 15:33:00,
2013-07-02 10:44:00,72.0,65.0,29.97,NNW,337,2.0,8.0,78,0.01,,,0.06,,2013-07-02 15:44:00,
2013-07-02 10:53:00,72.0,65.0,29.97,South,172,2.0,7.0,78,0.01,,,0.06,,2013-07-02 15:53:00,
2013-07-02 11:01:00,73.0,65.0,29.96,South,175,1.0,5.0,76,0.00,,,0.06,,2013-07-02 16:01:00,
2013-07-02 11:12:00,73.0,65.0,29.96,South,175,1.0,5.0,76,0.00,,,0.06,,2013-07-02 16:12:00,
2013-07-02 11:22:00,73.0,65.0,29.96,SSW,213,0.0,6.0,75,0.00,,,0.06,,2013-07-02 16:22:00,
2013-07-02 11:33:00,73.0,65.0,29.96,ENE,68,0.0,7.0,76,0.00,,,0.03,,2013-07-02 16:33:00,
2013-07-02 11:43:00,73.0,65.0,29.96,ENE,68,0.0,7.0,76,0.00,,,0.03,,2013-07-02 16:43:00,
2013-07-02 11:52:00,74.0,66.0,29.96,West,267,2.0,7.0,75,0.00,,,0.03,,2013-07-02 16:52:00,
2013-07-02 12:02:00,73.0,65.0,29.97,NW,317,1.0,3.0,77,0.00,,,0.03,,2013-07-02 17:02:00,
2013-07-02 12:12:00,73.0,65.0,29.97,NW,317,1.0,3.0,77,0.00,,,0.03,,2013-07-02 17:12:00,
2013-07-02 12:33:00,75.0,66.0,29.97,SE,146,2.0,9.0,73,0.00,,,0.03,,2013-07-02 17:33:00,
2013-07-02 12:43:00,75.0,66.0,29.97,SE,146,2.0,9.0,73,0.00,,,0.03,,2013-07-02 17:43:00,
2013-07-02 12:53:00,75.0,67.0,29.97,SSW,212,4.0,9.0,75,0.00,,,0.03,,2013-07-02 17:53:00,
2013-07-02 13:02:00,76.0,67.0,29.98,SSW,196,2.0,10.0,73,0.00,,,0.03,,2013-07-02 18:02:00,
2013-07-02 13:12:00,76.0,67.0,29.98,SSW,196,2.0,10.0,73,0.00,,,0.03,,2013-07-02 18:12:00,
2013-07-02 13:23:00,76.0,66.0,29.98,South,188,2.0,8.0,71,0.00,,,0.03,,2013-07-02 18:23:00,
2013-07-02 13:34:00,75.0,66.0,29.98,South,189,4.0,11.0,74,0.00,,,0.02,,2013-07-02 18:34:00,
2013-07-02 13:43:00,75.0,66.0,29.98,South,189,4.0,11.0,74,0.00,,,0.02,,2013-07-02 18:43:00,
2013-07-02 13:53:00,75.0,66.0,29.98,East,90,3.0,7.0,74,0.00,,,0.02,,2013-07-02 18:53:00,
2013-07-02 14:01:00,74.0,66.0,29.97,SSW,194,2.0,8.0,75,0.00,,,0.02,,2013-07-02 19:01:00,
2013-07-02 14:12:00,74.0,66.0,29.97,SSW,194,2.0,8.0,75,0.00,,,0.02,,2013-07-02 19:12:00,
2013-07-02 14:22:00,73.0,68.0,29.97,South,172,0.0,12.0,83,0.05,,,0.07,,2013-07-02 19:22:00,
2013-07-02 14:34:00,73.0,69.0,29.97,NNW,329,0.0,2.0,87,0.06,,,0.07,,2013-07-02 19:34:00,
2013-07-02 14:43:00,73.0,69.0,29.97,NNW,329,0.0,2.0,87,0.06,,,0.07,,2013-07-02 19:43:00,
2013-07-02 14:53:00,74.0,68.0,29.97,NW,309,1.0,4.0,81,0.06,,,0.07,,2013-07-02 19:53:00,
2013-07-02 15:02:00,75.0,68.0,29.97,North,10,1.0,7.0,80,0.06,,,0.07,,2013-07-02 20:02:00,
2013-07-02 15:11:00,75.0,68.0,29.97,North,10,1.0,7.0,80,0.06,,,0.07,,2013-07-02 20:11:00,
2013-07-02 15:22:00,75.0,66.0,29.97,ESE,123,1.0,8.0,73,0.00,,,0.07,,2013-07-02 20:22:00,
2013-07-02 15:33:00,75.0,66.0,29.97,NW,319,1.0,5.0,74,0.00,,,0.07,,2013-07-02 20:33:00,
2013-07-02 15:43:00,75.0,66.0,29.97,NW,319,1.0,5.0,74,0.00,,,0.07,,2013-07-02 20:43:00,
2013-07-02 15:52:00,75.0,67.0,29.97,NW,323,1.0,6.0,76,0.00,,,0.07,,2013-07-02 20:52:00,
2013-07-02 16:02:00,77.0,66.0,29.98,WNW,296,1.0,12.0,68,0.00,,,0.07,,2013-07-02 21:02:00,
2013-07-02 16:11:00,77.0,66.0,29.98,WNW,296,1.0,12.0,68,0.00,,,0.07,,2013-07-02 21:11:00,
2013-07-02 16:22:00,77.0,67.0,29.98,WNW,298,2.0,7.0,71,0.00,,,0.07,,2013-07-02 21:22:00,
2013-07-02 16:33:00,76.0,66.0,29.98,East,92,1.0,6.0,71,0.00,,,0.07,,2013-07-02 21:33:00,
2013-07-02 16:44:00,76.0,66.0,29.98,East,92,1.0,6.0,71,0.00,,,0.07,,2013-07-02 21:44:00,
2013-07-02 16:52:00,76.0,67.0,29.98,WNW,298,1.0,6.0,75,0.00,,,0.07,,2013-07-02 21:52:00,
2013-07-02 17:01:00,77.0,66.0,29.98,SSW,196,1.0,6.0,69,0.00,,,0.07,,2013-07-02 22:01:00,
2013-07-02 17:11:00,77.0,66.0,29.98,SSW,196,1.0,6.0,69,0.00,,,0.07,,2013-07-02 22:11:00,
2013-07-02 17:22:00,77.0,65.0,29.98,NW,313,0.0,9.0,67,0.00,,,0.07,,2013-07-02 22:22:00,
2013-07-02 17:34:00,78.0,65.0,29.98,NW,309,2.0,11.0,64,0.00,,,0.07,,2013-07-02 22:34:00,
2013-07-02 17:43:00,78.0,65.0,29.98,NW,309,2.0,11.0,64,0.00,,,0.07,,2013-07-02 22:43:00,
2013-07-02 17:53:00,77.0,65.0,29.98,NW,311,1.0,9.0,66,0.00,,,0.07,,2013-07-02 22:53:00,
2013-07-02 18:01:00,76.0,66.0,29.98,NW,315,2.0,8.0,71,0.00,,,0.07,,2013-07-02 23:01:00,
2013-07-02 18:11:00,76.0,66.0,29.98,NW,315,2.0,8.0,71,0.00,,,0.07,,2013-07-02 23:11:00,
2013-07-02 18:22:00,74.0,64.0,29.99,NW,317,2.0,9.0,72,0.00,,,0.07,,2013-07-02 23:22:00,
2013-07-02 18:33:00,74.0,64.0,29.99,NW,306,1.0,8.0,72,0.00,,,0.07,,2013-07-02 23:33:00,
2013-07-02 18:44:00,74.0,64.0,29.99,NW,306,1.0,8.0,72,0.00,,,0.07,,2013-07-02 23:44:00,
2013-07-02 18:52:00,75.0,65.0,29.99,NW,304,3.0,9.0,72,0.00,,,0.07,,2013-07-02 23:52:00,
2013-07-02 19:01:00,73.0,64.0,29.99,WNW,284,3.0,11.0,73,0.00,,,0.07,,2013-07-03 00:01:00,
2013-07-02 19:11:00,73.0,64.0,29.99,WNW,284,3.0,11.0,73,0.00,,,0.07,,2013-07-03 00:11:00,
2013-07-02 19:22:00,73.0,64.0,30.00,NW,310,4.0,11.0,74,0.00,,,0.07,,2013-07-03 00:22:00,
2013-07-02 19:33:00,72.0,64.0,30.01,WSW,240,2.0,7.0,75,0.00,,,0.07,,2013-07-03 00:33:00,
2013-07-02 19:44:00,72.0,64.0,30.01,WSW,240,2.0,7.0,75,0.00,,,0.07,,2013-07-03 00:44:00,
2013-07-02 19:52:00,71.0,63.0,30.01,West,280,2.0,6.0,75,0.00,,,0.07,,2013-07-03 00:52:00,
2013-07-02 20:01:00,71.0,63.0,30.01,West,280,2.0,6.0,75,0.00,,,0.07,,2013-07-03 01:01:00,
2013-07-02 20:11:00,70.0,62.0,30.01,WNW,298,2.0,8.0,77,0.00,,,0.07,,2013-07-03 01:11:00,
2013-07-02 20:22:00,69.0,62.0,30.02,West,279,2.0,7.0,78,0.00,,,0.07,,2013-07-03 01:22:00,
2013-07-02 20:33:00,69.0,62.0,30.02,West,279,2.0,7.0,78,0.00,,,0.07,,2013-07-03 01:33:00,
2013-07-02 20:42:00,69.0,62.0,30.02,WNW,299,0.0,4.0,79,0.00,,,0.07,,2013-07-03 01:42:00,
2013-07-02 20:56:00,69.0,62.0,30.02,WNW,299,0.0,4.0,79,0.00,,,0.07,,2013-07-03 01:56:00,
2013-07-02 21:05:00,68.0,62.0,30.02,NW,309,0.0,3.0,81,0.00,,,0.07,,2013-07-03 02:05:00,
2013-07-02 21:14:00,68.0,62.0,30.02,NW,309,0.0,3.0,81,0.00,,,0.07,,2013-07-03 02:14:00,
2013-07-02 21:27:00,68.0,62.0,30.02,NW,309,0.0,3.0,81,0.00,,,0.07,,2013-07-03 02:27:00,
2013-07-02 21:39:00,66.0,61.0,30.04,NW,306,0.0,3.0,84,0.00,,,0.07,,2013-07-03 02:39:00,
2013-07-02 21:44:00,66.0,61.0,30.04,NW,306,0.0,3.0,84,0.00,,,0.07,,2013-07-03 02:44:00,
2013-07-02 21:59:00,66.0,61.0,30.05,WNW,293,0.0,2.0,85,0.00,,,0.07,,2013-07-03 02:59:00,
2013-07-02 22:13:00,65.0,60.0,30.05,WNW,301,0.0,3.0,85,0.00,,,0.07,,2013-07-03 03:13:00,
2013-07-02 22:25:00,65.0,61.0,30.05,NW,311,0.0,1.0,86,0.00,,,0.07,,2013-07-03 03:25:00,
2013-07-02 22:47:00,65.0,61.0,30.05,NW,321,0.0,3.0,87,0.00,,,0.07,,2013-07-03 03:47:00,
2013-07-02 22:58:00,65.0,61.0,30.05,NNW,330,1.0,3.0,87,0.00,,,0.07,,2013-07-03 03:58:00,
2013-07-02 23:01:00,64.0,60.0,30.04,NW,313,0.0,1.0,87,0.00,,,0.07,,2013-07-03 04:01:00,
2013-07-02 23:11:00,64.0,60.0,30.04,NW,313,0.0,1.0,87,0.00,,,0.07,,2013-07-03 04:11:00,
2013-07-02 23:22:00,64.0,61.0,30.04,NW,313,0.0,0.0,89,0.00,,,0.07,,2013-07-03 04:22:00,
2013-07-02 23:33:00,63.0,60.0,30.04,NW,305,0.0,2.0,90,0.00,,,0.07,,2013-07-03 04:33:00,
2013-07-02 23:43:00,63.0,60.0,30.04,NW,305,0.0,2.0,90,0.00,,,0.07,,2013-07-03 04:43:00,
2013-07-02 23:52:00,63.0,60.0,30.05,NW,304,0.0,1.0,90,0.00,,,0.07,,2013-07-03 04:52:00,